Location: *
(43.7000°S, 168.7000°W)
Time: 15:04:24
(UTC+00:00)

YAOGAN 6 - Pass Details

Date: 07 July 2020
Orbit: 466 x 503 km, 97.0° (Epoch: 03 August)

Event Time Altitude Azimuth Distance (km) Brightness Sun altitude
Rises 16:23:21 0° 27° (NNE) 2,566 6.7 -25.3°
Reaches altitude 10° 16:25:28 10° 33° (NNE) 1,687 5.8 -24.9°
Maximum altitude 16:28:57 46° 106° (ESE) 676 3.6 -24.3°
Enters shadow 16:29:44 39° 143° (SE) 758 3.7 -24.2°
